When you browse on this site, cookies collect data to enhance your experience and personalize the content and advertising you see.
Visit our Privacy Policy to learn more. By continuing to use the site, you agree to this use of cookies and data.
  • Em Portugal
  • Lista de países
  • Para 7 dias
  • Temperatura da água
  • Mapas de satélite
  • Mapa do tempo
  • Widgets de tempo
  • user-avatar
    Iniciar Sessão

    Previsão horária em Klonowice

    Hoje, 19 Fevereiro, Terça-feira

    Tempo Temperatura Precipitação Vento Pressão Humidade
    00:00 +3°C° 0 mm 2 m/s 749 mmHg 85%
    01:00 +3°C° 0 mm 2 m/s 749 mmHg 85%
    02:00 +2°C° 0 mm 2 m/s 748 mmHg 85%
    03:00 +2°C° 0 mm 2 m/s 748 mmHg 86%
    04:00 +2°C° 0 mm 2 m/s 747 mmHg 86%
    05:00 +1°C° 0 mm 3 m/s 747 mmHg 86%
    06:00 +1°C° 0 mm 3 m/s 747 mmHg 86%
    07:00 +1°C° 0 mm 3 m/s 746 mmHg 86%
    08:00 +1°C° 0 mm 4 m/s 746 mmHg 82%
    09:00 +3°C° 0 mm 4 m/s 746 mmHg 78%
    10:00 +5°C° 0 mm 5 m/s 746 mmHg 74%
    11:00 +6°C° 0 mm 5 m/s 746 mmHg 72%
    12:00 +7°C° 0 mm 5 m/s 746 mmHg 70%
    13:00 +8°C° 0 mm 5 m/s 746 mmHg 68%
    14:00 +7°C° 0.2 mm 5 m/s 746 mmHg 73%
    15:00 +7°C° 0.2 mm 5 m/s 746 mmHg 78%
    16:00 +6°C° 0.2 mm 5 m/s 746 mmHg 83%
    17:00 +6°C° 0.1 mm 5 m/s 746 mmHg 81%
    18:00 +5°C° 0.1 mm 5 m/s 746 mmHg 80%
    19:00 +5°C° 0.1 mm 5 m/s 746 mmHg 79%
    20:00 +5°C° 0 mm 5 m/s 746 mmHg 79%
    21:00 +5°C° 0 mm 5 m/s 746 mmHg 80%
    22:00 +3°C° 0 mm 5 m/s 745 mmHg 81%
    23:00 +3°C° 0.1 mm 5 m/s 746 mmHg 81%

    Amanhã, 20 Fevereiro, Quarta-feira

    Tempo Temperatura Precipitação Vento Pressão Humidade
    00:00 +3°C° 0.1 mm 5 m/s 746 mmHg 80%
    01:00 +3°C° 0.1 mm 5 m/s 746 mmHg 80%
    02:00 +3°C° 0.1 mm 6 m/s 746 mmHg 80%
    03:00 +3°C° 0.1 mm 6 m/s 746 mmHg 79%
    04:00 +3°C° 0.1 mm 6 m/s 746 mmHg 78%
    05:00 +3°C° 0.1 mm 6 m/s 746 mmHg 78%
    06:00 +2°C° 0.1 mm 6 m/s 746 mmHg 77%
    07:00 +2°C° 0.1 mm 6 m/s 747 mmHg 76%
    08:00 +2°C° 0.1 mm 6 m/s 747 mmHg 76%
    09:00 +2°C° 0.1 mm 6 m/s 748 mmHg 75%
    10:00 +3°C° 0.1 mm 6 m/s 748 mmHg 74%
    11:00 +3°C° 0 mm 6 m/s 748 mmHg 74%
    12:00 +3°C° 0 mm 6 m/s 749 mmHg 73%
    13:00 +3°C° 0 mm 6 m/s 749 mmHg 72%
    14:00 +3°C° 0 mm 6 m/s 750 mmHg 72%
    15:00 +3°C° 0 mm 6 m/s 750 mmHg 71%
    16:00 +3°C° 0 mm 5 m/s 750 mmHg 71%
    17:00 +3°C° 0 mm 5 m/s 751 mmHg 74%
    18:00 +3°C° 0 mm 4 m/s 751 mmHg 78%
    19:00 +3°C° 0 mm 4 m/s 752 mmHg 81%
    20:00 +3°C° 0 mm 3 m/s 752 mmHg 85%
    21:00 +2°C° 0 mm 3 m/s 752 mmHg 88%
    22:00 +2°C° 0 mm 3 m/s 752 mmHg 91%
    23:00 +3°C° 0.1 mm 2 m/s 752 mmHg 93%

    Depois de amanhã, 21 Fevereiro, Quinta-feira

    Tempo Temperatura Precipitação Vento Pressão Humidade
    00:00 +3°C° 0.1 mm 2 m/s 752 mmHg 94%
    01:00 +3°C° 0.1 mm 2 m/s 752 mmHg 95%
    02:00 +3°C° 0.5 mm 2 m/s 752 mmHg 95%
    03:00 +4°C° 0.5 mm 2 m/s 751 mmHg 96%
    04:00 +4°C° 0.5 mm 2 m/s 751 mmHg 96%
    05:00 +3°C° 0.4 mm 3 m/s 751 mmHg 95%
    06:00 +3°C° 0.4 mm 3 m/s 751 mmHg 94%
    07:00 +4°C° 0.4 mm 3 m/s 751 mmHg 93%
    08:00 +4°C° 0.2 mm 3 m/s 751 mmHg 93%
    09:00 +4°C° 0.2 mm 3 m/s 751 mmHg 92%
    10:00 +4°C° 0.2 mm 4 m/s 751 mmHg 92%
    11:00 +5°C° 0.4 mm 4 m/s 751 mmHg 90%
    12:00 +5°C° 0.4 mm 4 m/s 751 mmHg 88%
    13:00 +6°C° 0.4 mm 4 m/s 751 mmHg 87%
    14:00 +6°C° 0.1 mm 4 m/s 751 mmHg 87%
    15:00 +5°C° 0.1 mm 4 m/s 751 mmHg 88%
    16:00 +5°C° 0.1 mm 3 m/s 751 mmHg 89%
    17:00 +5°C° 0.1 mm 3 m/s 751 mmHg 90%
    18:00 +5°C° 0.1 mm 3 m/s 752 mmHg 92%
    19:00 +4°C° 0.1 mm 3 m/s 752 mmHg 93%
    20:00 +4°C° 0.2 mm 3 m/s 753 mmHg 91%
    21:00 +3°C° 0.2 mm 4 m/s 753 mmHg 90%
    22:00 +1°C° 0.2 mm 4 m/s 754 mmHg 88%
    23:00 0°C° 0.2 mm 4 m/s 755 mmHg 87%

    22 Fevereiro, Sexta-feira

    Tempo Temperatura Precipitação Vento Pressão Humidade
    00:00 -1°C° 0.2 mm 4 m/s 755 mmHg 86%
    01:00 -2°C° 0.2 mm 4 m/s 756 mmHg 84%
    02:00 -2°C° 0 mm 4 m/s 757 mmHg 82%
    03:00 -2°C° 0 mm 4 m/s 758 mmHg 80%
    04:00 -2°C° 0 mm 4 m/s 759 mmHg 78%
    05:00 -3°C° 0 mm 4 m/s 760 mmHg 76%
    06:00 -3°C° 0 mm 4 m/s 761 mmHg 74%
    07:00 -3°C° 0 mm 4 m/s 762 mmHg 72%
    08:00 -3°C° 0 mm 4 m/s 763 mmHg 68%
    09:00 -3°C° 0 mm 4 m/s 764 mmHg 64%
    10:00 -2°C° 0 mm 4 m/s 765 mmHg 60%
    11:00 -2°C° 0 mm 4 m/s 765 mmHg 56%
    12:00 -2°C° 0 mm 4 m/s 766 mmHg 52%
    13:00 -2°C° 0 mm 4 m/s 767 mmHg 47%
    14:00 -1°C° 0 mm 3 m/s 767 mmHg 48%
    15:00 -1°C° 0 mm 3 m/s 767 mmHg 48%
    16:00 -1°C° 0 mm 3 m/s 768 mmHg 48%
    17:00 -2°C° 0 mm 2 m/s 768 mmHg 52%
    18:00 -3°C° 0 mm 2 m/s 768 mmHg 55%
    19:00 -2°C° 0 mm 1 m/s 769 mmHg 59%
    20:00 -2°C° 0 mm 1 m/s 769 mmHg 58%
    21:00 -2°C° 0 mm 1 m/s 769 mmHg 57%
    22:00 -2°C° 0 mm 1 m/s 769 mmHg 57%
    23:00 -1°C° 0 mm 1 m/s 769 mmHg 55%

    23 Fevereiro, Sábado

    Tempo Temperatura Precipitação Vento Pressão Humidade
    00:00 -1°C° 0 mm 1 m/s 769 mmHg 54%
    01:00 -1°C° 0 mm 1 m/s 769 mmHg 53%
    02:00 -3°C° 0 mm 2 m/s 769 mmHg 51%
    03:00 -3°C° 0 mm 2 m/s 769 mmHg 50%
    04:00 -3°C° 0 mm 2 m/s 768 mmHg 49%
    05:00 -2°C° 0 mm 2 m/s 768 mmHg 49%
    06:00 -2°C° 0 mm 3 m/s 768 mmHg 49%
    07:00 -2°C° 0 mm 3 m/s 768 mmHg 48%
    08:00 -1°C° 0 mm 3 m/s 768 mmHg 47%
    09:00 -1°C° 0 mm 3 m/s 768 mmHg 45%
    10:00 0°C° 0 mm 3 m/s 767 mmHg 44%
    11:00 +1°C° 0 mm 3 m/s 767 mmHg 45%
    12:00 +1°C° 0 mm 3 m/s 767 mmHg 46%
    13:00 +2°C° 0 mm 3 m/s 766 mmHg 46%
    14:00 +2°C° 0 mm 3 m/s 766 mmHg 52%
    15:00 +2°C° 0 mm 3 m/s 765 mmHg 57%
    16:00 +2°C° 0 mm 3 m/s 765 mmHg 62%
    17:00 +1°C° 0 mm 3 m/s 765 mmHg 70%
    18:00 +1°C° 0 mm 2 m/s 765 mmHg 78%
    19:00 -1°C° 0 mm 2 m/s 765 mmHg 86%
    20:00 -1°C° 0 mm 2 m/s 765 mmHg 89%
    21:00 -1°C° 0 mm 2 m/s 765 mmHg 92%
    22:00 -1°C° 0 mm 2 m/s 764 mmHg 95%
    23:00 -1°C° 0 mm 2 m/s 765 mmHg 96%

    24 Fevereiro, Domingo

    Tempo Temperatura Precipitação Vento Pressão Humidade
    00:00 +1°C° 0 mm 2 m/s 765 mmHg 96%
    01:00 +1°C° 0 mm 2 m/s 765 mmHg 97%
    02:00 +2°C° 0 mm 1 m/s 765 mmHg 97%
    03:00 +2°C° 0 mm 1 m/s 765 mmHg 97%
    04:00 +2°C° 0 mm 1 m/s 765 mmHg 97%
    05:00 +2°C° 0 mm 1 m/s 765 mmHg 97%
    06:00 +2°C° 0 mm 1 m/s 765 mmHg 97%
    07:00 +2°C° 0 mm 1 m/s 765 mmHg 97%
    08:00 +3°C° 0 mm 1 m/s 765 mmHg 95%
    09:00 +3°C° 0 mm 2 m/s 765 mmHg 92%
    10:00 +4°C° 0 mm 2 m/s 765 mmHg 89%
    11:00 +4°C° 0 mm 2 m/s 765 mmHg 88%
    12:00 +5°C° 0 mm 2 m/s 765 mmHg 87%
    13:00 +5°C° 0 mm 2 m/s 765 mmHg 85%
    14:00 +5°C° 0 mm 2 m/s 765 mmHg 87%
    15:00 +5°C° 0 mm 2 m/s 764 mmHg 89%
    16:00 +5°C° 0 mm 2 m/s 764 mmHg 91%
    17:00 +4°C° 0 mm 2 m/s 764 mmHg 92%
    18:00 +3°C° 0 mm 3 m/s 763 mmHg 94%
    19:00 +3°C° 0 mm 3 m/s 763 mmHg 95%
    20:00 +3°C° 0 mm 3 m/s 763 mmHg 95%
    21:00 +3°C° 0 mm 3 m/s 762 mmHg 94%
    22:00 +3°C° 0 mm 3 m/s 762 mmHg 94%
    23:00 +3°C° 0 mm 3 m/s 762 mmHg 94%
    Mostrar mais